Flag for Iceland Weather past 2 weeks in Reykjavik, Iceland

Now
32 °F

Snow flurries. Broken clouds.


Feels Like: 20 °F
Forecast: N/A
Wind: 20 mph from Southwest

Location: Reykjavik Airport

Current Time: Jan 27, 2015 at 2:43:24 PM

Latest Report: Jan 27, 2015 at 2:00 PM


Visibility: 2 mi

Pressure: 29.00 "Hg

Humidity: 93%

Dew point: 30 °F

Location of ReykjavikLocation

Historic Weather in Reykjavik — Graph

°F

Reykjavik temperature yesterday

Maximum temperature yesterday: 43 °F (at 10:00 PM)
Minimum temperature yesterday: 30 °F (at 1:00 AM)
Average temperature yesterday: 36 °F

Past Weeks' High & Low Weather Summary

 TemperatureHumidityPressure
High43 °F (Jan 26, 10:00 PM)100% (Jan 24, 7:00 PM)30.36 "Hg (Jan 24, 7:00 PM)
Low16 °F (Jan 18, 6:00 AM)46% (Jan 18, 12:00 PM)28.47 "Hg (Jan 12, 1:00 PM)
Average33 °F73%29.27 "Hg
* Reported Jan 12 1:00 PM — Jan 27 1:00 PM, Reykjavik, Weather by CustomWeather, © 2014

Note: Actual official high and low records may vary slightly from our data, if they occured in-between our weather recording intervals... More about our weather records

Advertising

Reykjavik weather history for previous 24 hours

 ConditionsComfort  
Time TempWeatherWind HumidityBarometerVisibility
1:00 PM
Jan 27
34 °FLight snow. Broken clouds.16 mph93%29.03 "HgN/A
12:00 PM32 °FSnow showers. More clouds than sun.12 mph93%29.09 "Hg1 mi
11:00 AM41 °FSnow showers. Broken clouds.22 mph70%29.12 "HgN/A
10:00 AM39 °FPassing clouds.13 mph70%29.18 "HgN/A
9:00 AM37 °FPassing clouds.12 mph75%29.24 "HgN/A
8:00 AM36 °FSprinkles. Passing clouds.8 mph87%29.27 "Hg6 mi
7:00 AM36 °FSprinkles. Partly cloudy.15 mph87%29.33 "Hg4 mi
6:00 AM36 °FSprinkles. Passing clouds.15 mph87%29.33 "Hg5 mi
5:00 AM37 °FPartly cloudy.14 mph81%29.33 "HgN/A
4:00 AM36 °FPassing clouds.14 mph87%29.36 "HgN/A
3:00 AM37 °FPartly cloudy.18 mph87%29.33 "HgN/A
2:00 AM39 °FPassing clouds.16 mph81%29.33 "HgN/A
1:00 AM39 °FPassing clouds.13 mph87%29.30 "HgN/A
12:00 AM41 °FLight rain. Passing clouds.17 mph93%29.30 "Hg5 mi
11:00 PM
Jan 26
41 °FPartly cloudy.17 mph93%29.27 "HgN/A
10:00 PM43 °FMostly cloudy.21 mph87%29.27 "Hg5 mi
9:00 PM41 °FLight rain. Mostly cloudy.22 mph93%29.27 "Hg4 mi
8:00 PM41 °FLight rain. Mostly cloudy.17 mph93%29.27 "Hg4 mi
7:00 PM41 °FLight rain. Mostly cloudy.16 mph87%29.30 "Hg6 mi
6:00 PM39 °FLight rain. Mostly cloudy.16 mph87%29.33 "HgN/A
5:00 PM39 °FLight rain. Overcast.17 mph81%29.39 "HgN/A
4:00 PM37 °FLight rain. More clouds than sun.8 mph81%29.45 "HgN/A
3:00 PM36 °FLight rain. More clouds than sun.12 mph81%29.50 "HgN/A
2:00 PM36 °FLight snow. More clouds than sun.8 mph75%29.56 "HgN/A
Weather by CustomWeather, © 2014

See weather overviewHow to use our weather pages